Location: Ladrillo (historical)
(32.8195°N, 117.2231°W)
Time: 22:21:44
(UTC+00:00)

N. Korean satellite - Visible Passes

Search period start: 22 January 2021 00:00
Search period end: 01 February 2021 00:00
Orbit: 452 x 502 km, 97.2° (Epoch: 22 January)

Date Brightness Start Highest point End Pass type
(mag) Time Alt. Az. Time Alt. Az. Time Alt. Az.
22 Jan 9.3 12:27:45 10° NE 12:30:11 18° E 12:32:35 10° SE visible
22 Jan 7.9 14:01:01 10° NNW 14:03:21 17° WNW 14:05:40 10° WSW visible
23 Jan 6.8 13:33:41 10° N 13:36:56 40° WNW 13:40:08 10° SW visible
24 Jan 10.2 01:39:16 10° WSW 01:40:37 12° W 01:41:59 10° WNW visible
24 Jan 6.5 13:06:58 10° NNE 13:10:24 74° E 13:13:47 10° S visible
25 Jan 8.5 12:40:48 10° NE 12:43:47 28° E 12:46:45 10° SSE visible
25 Jan 8.4 14:15:39 10° NW 14:16:46 11° WNW 14:17:53 10° W visible
26 Jan 9.8 12:15:45 10° ENE 12:17:04 12° E 12:18:24 10° ESE visible
26 Jan 7.4 13:47:31 10° NNW 13:50:24 25° WNW 13:53:14 10° SW visible
27 Jan 6.3 13:20:30 10° N 13:23:55 65° WNW 13:27:16 10° SSW visible
28 Jan 7.5 12:54:02 10° NNE 12:57:20 45° E 13:00:35 10° S visible
29 Jan 9.2 12:28:13 10° NE 12:30:40 18° E 12:33:05 10° SE visible
29 Jan 8.0 14:01:34 10° NNW 14:03:48 17° WNW 14:06:02 10° WSW visible
30 Jan 6.8 13:34:10 10° N 13:37:22 39° WNW 13:40:33 10° SW visible
31 Jan 6.5 13:07:25 10° NNE 13:10:50 77° ESE 13:14:12 10° S visible
